Time,TemperatureF,DewpointF,PressureIn,WindDirection,WindDirectionDegrees,WindSpeedMPH,WindSpeedGustMPH,Humidity,HourlyPrecipIn,Conditions,Clouds,dailyrainin,SolarRadiationWatts/m^2,SoftwareType,DateUTC
2013-01-28 00:00:00,29.0,27.0,30.09,South,175,4.6,6.9,92,0.00,OVC,,0.00,0.0,WeatherDisplay:10.37,2013-01-28 05:00:00,
2013-01-28 00:01:00,29.0,27.0,30.09,SSE,153,3.2,6.9,92,0.00,OVC,,0.00,0.0,WeatherDisplay:10.37,2013-01-28 05:01:00,
2013-01-28 00:02:00,29.0,27.0,30.09,ESE,119,3.8,4.6,92,0.00,OVC,,0.00,0.0,WeatherDisplay:10.37,2013-01-28 05:02:00,
2013-01-28 00:04:00,29.1,27.1,30.09,SSE,150,2.6,4.6,92,0.00,OVC,,0.00,0.0,WeatherDisplay:10.37,2013-01-28 05:04:00,
2013-01-28 00:09:00,29.3,27.5,30.10,SE,144,2.2,3.5,93,0.00,OVC,,0.00,0.0,WeatherDisplay:10.37,2013-01-28 05:09:00,
2013-01-28 00:14:00,29.4,27.4,30.11,SSE,167,2.4,4.0,92,0.00,OVC,,0.00,0.0,WeatherDisplay:10.37,2013-01-28 05:14:00,
2013-01-28 00:19:00,29.6,27.8,30.10,SSE,167,3.1,3.5,93,0.00,OVC,,0.00,0.0,WeatherDisplay:10.37,2013-01-28 05:19:00,
2013-01-28 00:24:00,29.8,28.0,30.09,SE,144,3.3,4.0,93,0.00,OVC,,0.00,0.0,WeatherDisplay:10.37,2013-01-28 05:24:00,
2013-01-28 00:29:00,29.8,28.0,30.09,SSE,154,3.7,4.6,93,0.00,OVC,,0.00,0.0,WeatherDisplay:10.37,2013-01-28 05:29:00,
2013-01-28 00:34:00,29.9,28.1,30.09,ESE,106,3.4,4.0,93,0.00,OVC,,0.00,0.0,WeatherDisplay:10.37,2013-01-28 05:34:00,
2013-01-28 00:39:00,30.1,28.3,30.08,SE,140,3.1,4.6,93,0.00,OVC,,0.00,0.0,WeatherDisplay:10.37,2013-01-28 05:39:00,
2013-01-28 00:44:00,30.1,28.6,30.07,SE,144,2.7,8.1,94,0.00,OVC,,0.00,0.0,WeatherDisplay:10.37,2013-01-28 05:44:00,
2013-01-28 00:49:00,30.3,28.8,30.07,SSE,156,3.0,8.1,94,0.00,OVC,,0.00,0.0,WeatherDisplay:10.37,2013-01-28 05:49:00,
2013-01-28 00:54:00,30.4,28.9,30.07,SSE,148,4.0,9.2,94,0.00,OVC,,0.00,0.0,WeatherDisplay:10.37,2013-01-28 05:54:00,
2013-01-28 00:59:00,30.6,29.1,30.07,SE,134,2.4,5.8,94,0.00,OVC,,0.00,0.0,WeatherDisplay:10.37,2013-01-28 05:59:00,
2013-01-28 01:04:00,30.6,28.8,30.07,South,180,2.5,3.5,93,0.00,OVC,,0.00,0.0,WeatherDisplay:10.37,2013-01-28 06:04:00,
2013-01-28 01:09:00,30.7,29.2,30.06,South,182,2.0,3.5,94,0.00,OVC,,0.00,0.0,WeatherDisplay:10.37,2013-01-28 06:09:00,
2013-01-28 01:14:00,30.7,28.9,30.07,SE,128,3.5,4.0,93,0.00,OVC,,0.00,0.0,WeatherDisplay:10.37,2013-01-28 06:14:00,
2013-01-28 01:19:00,30.7,29.2,30.07,SE,126,2.2,4.0,94,0.00,OVC,,0.00,0.0,WeatherDisplay:10.37,2013-01-28 06:19:00,
2013-01-28 01:24:00,30.7,29.2,30.05,ESE,117,3.3,5.0,94,0.00,OVC,,0.00,0.0,WeatherDisplay:10.37,2013-01-28 06:24:00,
2013-01-28 01:29:00,30.7,28.9,30.05,ESE,117,2.6,4.6,93,0.00,OVC,,0.00,0.0,WeatherDisplay:10.37,2013-01-28 06:29:00,
2013-01-28 01:35:00,30.7,28.9,30.05,ESE,117,2.6,4.0,93,0.00,OVC,,0.00,0.0,WeatherDisplay:10.37,2013-01-28 06:35:00,
2013-01-28 01:40:00,30.7,28.9,30.05,ESE,117,2.5,4.0,93,0.00,OVC,,0.00,0.0,WeatherDisplay:10.37,2013-01-28 06:40:00,
2013-01-28 01:45:00,30.7,29.2,30.05,ESE,117,1.2,3.5,94,0.00,OVC,,0.00,0.0,WeatherDisplay:10.37,2013-01-28 06:45:00,
2013-01-28 01:50:00,30.6,29.1,30.05,ESE,117,1.6,3.0,94,0.00,OVC,,0.00,0.0,WeatherDisplay:10.37,2013-01-28 06:50:00,
2013-01-28 01:55:00,30.6,29.1,30.04,ESE,117,1.8,3.5,94,0.00,OVC,,0.00,0.0,WeatherDisplay:10.37,2013-01-28 06:55:00,
2013-01-28 02:00:00,30.6,29.1,30.03,ESE,117,2.4,3.5,94,0.00,OVC,,0.00,0.0,WeatherDisplay:10.37,2013-01-28 07:00:00,
2013-01-28 02:05:00,30.6,29.1,30.02,ESE,117,3.1,4.0,94,0.00,OVC,,0.00,0.0,WeatherDisplay:10.37,2013-01-28 07:05:00,
2013-01-28 02:10:00,30.6,29.1,30.02,ESE,117,2.7,6.9,94,0.00,OVC,,0.00,0.0,WeatherDisplay:10.37,2013-01-28 07:10:00,
2013-01-28 02:15:00,30.6,29.1,30.03,ESE,117,2.1,3.5,94,0.00,OVC,,0.00,0.0,WeatherDisplay:10.37,2013-01-28 07:15:00,
2013-01-28 02:20:00,30.6,29.1,30.02,ESE,117,2.1,3.5,94,0.00,OVC,,0.00,0.0,WeatherDisplay:10.37,2013-01-28 07:20:00,
2013-01-28 02:25:00,30.6,29.1,30.03,ESE,117,1.4,6.9,94,0.00,OVC,,0.00,0.0,WeatherDisplay:10.37,2013-01-28 07:25:00,
2013-01-28 02:30:00,30.7,29.2,30.02,ESE,117,1.3,2.3,94,0.00,OVC,,0.00,0.0,WeatherDisplay:10.37,2013-01-28 07:30:00,
2013-01-28 02:35:00,30.7,29.2,30.02,ESE,117,2.4,3.5,94,0.00,OVC,,0.00,0.0,WeatherDisplay:10.37,2013-01-28 07:35:00,
2013-01-28 02:40:00,30.8,29.3,30.01,ESE,117,1.9,4.6,94,0.00,OVC,,0.00,0.0,WeatherDisplay:10.37,2013-01-28 07:40:00,
2013-01-28 02:45:00,30.8,29.3,30.01,ESE,117,2.0,3.5,94,0.00,OVC,,0.00,0.0,WeatherDisplay:10.37,2013-01-28 07:45:00,
2013-01-28 02:50:00,30.8,29.5,30.01,ESE,117,1.4,4.6,95,0.00,OVC,,0.00,0.0,WeatherDisplay:10.37,2013-01-28 07:50:00,
2013-01-28 02:55:00,30.9,29.6,30.01,ESE,117,2.0,3.5,95,0.00,OVC,,0.00,0.0,WeatherDisplay:10.37,2013-01-28 07:55:00,
2013-01-28 03:00:00,31.0,29.7,30.01,ESE,117,1.9,3.5,95,0.00,OVC,,0.00,0.0,WeatherDisplay:10.37,2013-01-28 08:00:00,
2013-01-28 03:05:00,31.0,29.7,30.00,ESE,117,2.5,3.5,95,0.00,OVC,,0.00,0.0,WeatherDisplay:10.37,2013-01-28 08:05:00,
2013-01-28 03:10:00,31.1,29.8,30.00,ESE,117,1.6,3.5,95,0.00,OVC,,0.00,0.0,WeatherDisplay:10.37,2013-01-28 08:10:00,
2013-01-28 03:15:00,31.1,29.8,30.00,ESE,117,0.8,2.3,95,0.00,OVC,,0.00,0.0,WeatherDisplay:10.37,2013-01-28 08:15:00,
2013-01-28 03:20:00,31.2,29.9,30.00,ESE,117,0.8,3.5,95,0.00,OVC,,0.00,0.0,WeatherDisplay:10.37,2013-01-28 08:20:00,
2013-01-28 03:25:00,31.2,29.9,30.00,ESE,117,0.7,2.3,95,0.00,OVC,,0.00,0.0,WeatherDisplay:10.37,2013-01-28 08:25:00,
2013-01-28 03:30:00,31.2,29.9,29.99,ESE,117,1.0,3.0,95,0.00,OVC,OVC,0.00,0.0,WeatherDisplay:10.37,2013-01-28 08:30:00,
2013-01-28 03:35:00,31.2,29.9,29.99,ESE,117,0.9,2.3,95,0.00,OVC,,0.00,0.0,WeatherDisplay:10.37,2013-01-28 08:35:00,
2013-01-28 03:40:00,31.3,30.0,29.99,ESE,117,1.5,2.3,95,0.00,OVC,,0.00,0.0,WeatherDisplay:10.37,2013-01-28 08:40:00,
2013-01-28 03:45:00,31.3,30.3,29.99,ESE,117,1.4,2.3,96,0.00,OVC,,0.00,0.0,WeatherDisplay:10.37,2013-01-28 08:45:00,
2013-01-28 03:50:00,31.4,30.4,29.98,ESE,117,0.6,1.1,96,0.00,OVC,,0.00,0.0,WeatherDisplay:10.37,2013-01-28 08:50:00,
2013-01-28 03:55:00,31.4,30.4,29.98,ESE,117,0.8,1.1,96,0.00,OVC,,0.00,0.0,WeatherDisplay:10.37,2013-01-28 08:55:00,
2013-01-28 04:00:00,31.4,30.4,29.98,ESE,117,0.8,2.0,96,0.00,OVC,,0.00,0.0,WeatherDisplay:10.37,2013-01-28 09:00:00,
2013-01-28 04:05:00,31.5,30.5,29.98,ESE,117,0.6,2.3,96,0.00,OVC,,0.00,0.0,WeatherDisplay:10.37,2013-01-28 09:05:00,
2013-01-28 04:10:00,31.5,30.5,29.98,ESE,117,0.7,2.3,96,0.00,OVC,,0.00,0.0,WeatherDisplay:10.37,2013-01-28 09:10:00,
2013-01-28 04:15:00,31.6,30.6,29.97,ESE,117,0.6,2.3,96,0.00,OVC,,0.00,0.0,WeatherDisplay:10.37,2013-01-28 09:15:00,
2013-01-28 04:20:00,31.7,30.7,29.97,ESE,117,0.6,2.3,96,0.00,OVC,,0.00,0.0,WeatherDisplay:10.37,2013-01-28 09:20:00,
2013-01-28 04:25:00,31.7,30.7,29.96,ESE,117,0.6,3.5,96,0.00,OVC,,0.00,0.0,WeatherDisplay:10.37,2013-01-28 09:25:00,
2013-01-28 04:30:00,31.7,30.7,29.96,ESE,117,0.6,1.1,96,0.00,OVC,,0.00,0.0,WeatherDisplay:10.37,2013-01-28 09:30:00,
2013-01-28 04:35:00,31.8,30.8,29.95,ESE,117,0.8,2.3,96,0.00,OVC,,0.00,0.0,WeatherDisplay:10.37,2013-01-28 09:35:00,
2013-01-28 04:40:00,31.9,30.9,29.95,ESE,117,0.2,1.1,96,0.00,OVC,,0.00,0.0,WeatherDisplay:10.37,2013-01-28 09:40:00,
2013-01-28 04:45:00,31.9,30.9,29.95,ESE,117,0.9,1.1,96,0.00,OVC,,0.00,0.0,WeatherDisplay:10.37,2013-01-28 09:45:00,
2013-01-28 04:50:00,31.9,30.9,29.95,ESE,117,0.1,1.1,96,0.00,OVC,,0.00,0.0,WeatherDisplay:10.37,2013-01-28 09:50:00,
2013-01-28 04:55:00,32.0,31.0,29.95,ESE,117,0.2,1.1,96,0.00,OVC,,0.00,0.0,WeatherDisplay:10.37,2013-01-28 09:55:00,
2013-01-28 05:00:00,32.1,31.1,29.94,ESE,117,0.3,1.1,96,0.00,OVC,,0.00,0.0,WeatherDisplay:10.37,2013-01-28 10:00:00,
2013-01-28 05:05:00,32.1,31.1,29.94,ESE,117,0.6,1.1,96,0.00,OVC,,0.00,0.0,WeatherDisplay:10.37,2013-01-28 10:05:00,
2013-01-28 05:10:00,32.1,31.1,29.94,ESE,117,0.8,2.3,96,0.00,OVC,,0.00,0.0,WeatherDisplay:10.37,2013-01-28 10:10:00,
2013-01-28 05:15:00,32.2,31.2,29.94,ESE,117,0.5,1.1,96,0.00,OVC,,0.00,0.0,WeatherDisplay:10.37,2013-01-28 10:15:00,
2013-01-28 05:20:00,32.2,31.2,29.93,ESE,117,0.8,2.3,96,0.00,OVC,,0.00,0.0,WeatherDisplay:10.37,2013-01-28 10:20:00,
2013-01-28 05:25:00,32.3,31.3,29.93,ESE,117,0.0,1.1,96,0.00,OVC,,0.00,0.0,WeatherDisplay:10.37,2013-01-28 10:25:00,
2013-01-28 05:30:00,32.3,31.3,29.92,ESE,117,1.4,3.5,96,0.00,OVC,,0.00,0.0,WeatherDisplay:10.37,2013-01-28 10:30:00,
2013-01-28 05:35:00,32.3,31.3,29.92,ESE,117,0.8,2.0,96,0.00,OVC,,0.00,0.0,WeatherDisplay:10.37,2013-01-28 10:35:00,
2013-01-28 05:40:00,32.3,31.3,29.92,ESE,117,0.3,1.1,96,0.00,OVC,,0.00,0.0,WeatherDisplay:10.37,2013-01-28 10:40:00,
2013-01-28 05:45:00,32.3,31.3,29.91,ESE,117,0.8,1.1,96,0.00,OVC,,0.00,0.0,WeatherDisplay:10.37,2013-01-28 10:45:00,
2013-01-28 05:50:00,32.4,31.4,29.91,ESE,117,0.2,1.1,96,0.00,OVC,,0.00,0.0,WeatherDisplay:10.37,2013-01-28 10:50:00,
2013-01-28 05:55:00,32.3,31.3,29.91,ESE,117,0.8,2.3,96,0.00,OVC,,0.00,0.0,WeatherDisplay:10.37,2013-01-28 10:55:00,
2013-01-28 06:00:00,32.4,31.4,29.91,ESE,117,0.3,1.1,96,0.00,OVC,,0.00,0.0,WeatherDisplay:10.37,2013-01-28 11:00:00,
2013-01-28 06:05:00,32.4,31.4,29.90,ESE,117,0.2,1.1,96,0.00,OVC,,0.00,0.0,WeatherDisplay:10.37,2013-01-28 11:05:00,
2013-01-28 06:10:00,32.4,31.4,29.90,ESE,117,0.2,1.1,96,0.00,OVC,,0.00,0.0,WeatherDisplay:10.37,2013-01-28 11:10:00,
2013-01-28 06:15:00,32.4,31.6,29.90,ESE,117,0.7,1.1,97,0.00,OVC,,0.00,0.0,WeatherDisplay:10.37,2013-01-28 11:15:00,
2013-01-28 06:20:00,32.5,31.7,29.90,ESE,117,0.7,1.1,97,0.00,OVC,,0.00,0.0,WeatherDisplay:10.37,2013-01-28 11:20:00,
2013-01-28 06:25:00,32.5,31.7,29.89,ESE,117,0.9,2.3,97,0.00,OVC,,0.00,0.0,WeatherDisplay:10.37,2013-01-28 11:25:00,
2013-01-28 06:30:00,32.6,31.8,29.89,ESE,117,0.8,1.1,97,0.00,OVC,,0.00,0.0,WeatherDisplay:10.37,2013-01-28 11:30:00,
2013-01-28 06:35:00,32.6,31.8,29.89,ESE,117,0.8,2.3,97,0.00,OVC,,0.00,0.0,WeatherDisplay:10.37,2013-01-28 11:35:00,
2013-01-28 06:40:00,32.6,31.8,29.89,ESE,117,1.1,2.0,97,0.00,OVC,,0.00,0.0,WeatherDisplay:10.37,2013-01-28 11:40:00,
2013-01-28 06:45:00,32.6,31.8,29.88,ESE,117,1.1,2.3,97,0.00,OVC,,0.00,0.0,WeatherDisplay:10.37,2013-01-28 11:45:00,
2013-01-28 06:50:00,32.7,31.9,29.88,ESE,117,1.4,3.5,97,0.00,OVC,,0.00,0.0,WeatherDisplay:10.37,2013-01-28 11:50:00,
2013-01-28 06:55:00,32.8,32.0,29.88,ESE,117,1.5,3.5,97,0.00,OVC,,0.00,0.0,WeatherDisplay:10.37,2013-01-28 11:55:00,
2013-01-28 07:00:00,32.8,32.0,29.88,ESE,117,0.6,1.1,97,0.00,OVC,,0.00,0.0,WeatherDisplay:10.37,2013-01-28 12:00:00,
2013-01-28 07:05:00,32.8,32.0,29.87,ESE,117,0.7,1.1,97,0.00,CLR,,0.00,0.0,WeatherDisplay:10.37,2013-01-28 12:05:00,
2013-01-28 07:10:00,32.8,32.0,29.87,ESE,117,1.0,1.1,97,0.00,CLR,,0.00,0.0,WeatherDisplay:10.37,2013-01-28 12:10:00,
2013-01-28 07:15:00,32.9,32.1,29.86,ESE,117,0.8,2.3,97,0.00,CLR,,0.00,0.0,WeatherDisplay:10.37,2013-01-28 12:15:00,
2013-01-28 07:20:00,33.0,32.2,29.87,ESE,117,0.3,2.0,97,0.00,CLR,,0.00,0.0,WeatherDisplay:10.37,2013-01-28 12:20:00,
2013-01-28 07:25:00,33.1,32.3,29.87,ESE,117,0.2,1.1,97,0.00,CLR,,0.00,0.0,WeatherDisplay:10.37,2013-01-28 12:25:00,
2013-01-28 07:31:00,33.1,32.3,29.87,ESE,117,0.4,1.0,97,0.00,CLR,,0.00,0.0,WeatherDisplay:10.37,2013-01-28 12:31:00,
2013-01-28 07:36:00,33.2,32.4,29.87,ESE,117,0.6,1.1,97,0.00,CLR,,0.00,0.0,WeatherDisplay:10.37,2013-01-28 12:36:00,
2013-01-28 07:41:00,33.2,32.4,29.87,ESE,117,0.4,1.1,97,0.00,CLR,,0.00,0.0,WeatherDisplay:10.37,2013-01-28 12:41:00,
2013-01-28 07:46:00,33.2,32.4,29.87,ESE,117,0.4,1.1,97,0.00,CLR,,0.00,0.0,WeatherDisplay:10.37,2013-01-28 12:46:00,
2013-01-28 07:51:00,33.3,32.5,29.87,ESE,117,0.3,1.1,97,0.00,CLR,,0.00,0.0,WeatherDisplay:10.37,2013-01-28 12:51:00,
2013-01-28 07:56:00,33.3,32.5,29.86,ESE,117,0.5,1.1,97,0.00,CLR,,0.00,0.0,WeatherDisplay:10.37,2013-01-28 12:56:00,
2013-01-28 08:01:00,33.4,32.6,29.86,ESE,117,0.0,1.1,97,0.00,CLR,,0.00,0.0,WeatherDisplay:10.37,2013-01-28 13:01:00,
2013-01-28 08:06:00,33.4,32.6,29.86,ESE,117,0.0,0.0,97,0.00,BKN,,0.00,5.0,WeatherDisplay:10.37,2013-01-28 13:06:00,
2013-01-28 08:11:00,33.4,32.6,29.86,ESE,117,0.6,1.1,97,0.00,BKN,,0.00,9.0,WeatherDisplay:10.37,2013-01-28 13:11:00,
2013-01-28 08:16:00,33.4,32.6,29.86,ESE,117,0.6,1.1,97,0.00,BKN,,0.00,9.0,WeatherDisplay:10.37,2013-01-28 13:16:00,
2013-01-28 08:21:00,33.5,32.7,29.85,ESE,117,0.6,1.1,97,0.00,BKN,,0.00,9.0,WeatherDisplay:10.37,2013-01-28 13:21:00,
2013-01-28 08:26:00,33.8,33.0,29.85,ESE,117,0.3,2.3,97,0.00,BKN,,0.00,9.0,WeatherDisplay:10.37,2013-01-28 13:26:00,
2013-01-28 08:31:00,34.2,33.4,29.85,ESE,117,0.9,1.1,97,0.00,BKN,,0.00,11.0,WeatherDisplay:10.37,2013-01-28 13:31:00,
2013-01-28 08:36:00,34.6,33.8,29.85,South,175,1.7,3.5,97,0.00,BKN,,0.00,12.0,WeatherDisplay:10.37,2013-01-28 13:36:00,
2013-01-28 08:41:00,35.3,34.8,29.84,SSW,205,0.7,2.3,98,0.00,BKN,,0.00,14.0,WeatherDisplay:10.37,2013-01-28 13:41:00,
2013-01-28 08:46:00,36.0,35.5,29.85,South,181,1.4,3.5,98,0.00,BKN,,0.00,19.0,WeatherDisplay:10.37,2013-01-28 13:46:00,
2013-01-28 08:51:00,36.5,36.0,29.85,South,187,3.0,5.8,98,0.00,BKN,,0.00,16.0,WeatherDisplay:10.37,2013-01-28 13:51:00,
2013-01-28 08:56:00,37.1,36.6,29.84,SW,225,2.3,3.5,98,0.00,BKN,,0.00,19.0,WeatherDisplay:10.37,2013-01-28 13:56:00,
2013-01-28 09:01:00,37.4,36.9,29.85,SW,234,2.0,3.5,98,0.00,BKN,,0.00,18.0,WeatherDisplay:10.37,2013-01-28 14:01:00,
2013-01-28 09:06:00,37.7,37.2,29.85,SW,232,1.8,3.5,98,0.00,BKN,,0.00,39.0,WeatherDisplay:10.37,2013-01-28 14:06:00,
2013-01-28 09:11:00,37.9,37.4,29.84,South,185,2.6,4.6,98,0.00,BKN,,0.00,28.0,WeatherDisplay:10.37,2013-01-28 14:11:00,
2013-01-28 09:16:00,38.1,37.6,29.84,South,179,2.0,3.5,98,0.00,BKN,,0.00,21.0,WeatherDisplay:10.37,2013-01-28 14:16:00,
2013-01-28 09:21:00,38.3,37.8,29.84,WSW,247,3.5,5.0,98,0.00,BKN,,0.00,26.0,WeatherDisplay:10.37,2013-01-28 14:21:00,
2013-01-28 09:26:00,38.6,38.1,29.84,SW,233,2.1,5.0,98,0.00,BKN,,0.00,40.0,WeatherDisplay:10.37,2013-01-28 14:26:00,
2013-01-28 09:31:00,38.8,38.3,29.84,South,180,2.2,4.6,98,0.02,RA,,0.02,69.0,WeatherDisplay:10.37,2013-01-28 14:31:00,
2013-01-28 09:36:00,38.9,38.4,29.84,SSW,206,3.5,9.2,98,0.03,RA,,0.04,56.0,WeatherDisplay:10.37,2013-01-28 14:36:00,
2013-01-28 09:41:00,39.2,38.7,29.84,SW,230,4.8,5.8,98,0.05,RA,,0.06,30.0,WeatherDisplay:10.37,2013-01-28 14:41:00,
2013-01-28 09:46:00,39.4,38.9,29.84,SSW,195,3.6,11.5,98,0.08,RA,,0.08,47.0,WeatherDisplay:10.37,2013-01-28 14:46:00,
2013-01-28 09:51:00,39.5,39.0,29.84,SW,222,3.6,8.1,98,0.11,RA,,0.12,40.0,WeatherDisplay:10.37,2013-01-28 14:51:00,
2013-01-28 09:56:00,39.7,39.2,29.84,SSW,198,1.5,6.9,98,0.15,RA,,0.15,58.0,WeatherDisplay:10.37,2013-01-28 14:56:00,
2013-01-28 10:01:00,39.8,39.3,29.84,South,171,2.3,4.0,98,0.17,RA,,0.17,70.0,WeatherDisplay:10.37,2013-01-28 15:01:00,
2013-01-28 10:06:00,40.0,39.5,29.84,SW,228,3.3,6.0,98,0.18,RA,,0.18,62.0,WeatherDisplay:10.37,2013-01-28 15:06:00,
2013-01-28 10:11:00,40.1,39.6,29.84,WSW,242,3.9,10.4,98,0.19,RA,,0.20,58.0,WeatherDisplay:10.37,2013-01-28 15:11:00,
2013-01-28 10:16:00,40.2,39.7,29.84,SSW,197,3.5,3.5,98,0.20,RA,,0.20,62.0,WeatherDisplay:10.37,2013-01-28 15:16:00,
2013-01-28 10:21:00,40.3,39.8,29.83,South,184,3.3,6.0,98,0.21,RA,,0.21,63.0,WeatherDisplay:10.37,2013-01-28 15:21:00,
2013-01-28 10:26:00,40.5,40.0,29.84,SSW,206,3.9,5.8,98,0.22,RA,,0.22,84.0,WeatherDisplay:10.37,2013-01-28 15:26:00,
2013-01-28 10:31:00,40.6,40.1,29.84,South,182,2.9,5.8,98,0.21,RA,,0.23,65.0,WeatherDisplay:10.37,2013-01-28 15:31:00,
2013-01-28 10:36:00,40.7,40.2,29.84,South,188,4.8,10.4,98,0.21,RA,,0.24,72.0,WeatherDisplay:10.37,2013-01-28 15:36:00,
2013-01-28 10:41:00,40.9,40.4,29.84,WSW,246,4.7,8.1,98,0.20,RA,,0.25,77.0,WeatherDisplay:10.37,2013-01-28 15:41:00,
2013-01-28 10:46:00,41.0,40.5,29.84,SW,227,4.2,5.8,98,0.18,RA,,0.26,53.0,WeatherDisplay:10.37,2013-01-28 15:46:00,
2013-01-28 10:51:00,40.9,40.4,29.84,South,169,2.4,4.6,98,0.15,RA,,0.26,51.0,WeatherDisplay:10.37,2013-01-28 15:51:00,
2013-01-28 10:56:00,41.0,40.5,29.84,SW,219,4.1,8.0,98,0.12,RA,,0.27,62.0,WeatherDisplay:10.37,2013-01-28 15:56:00,
2013-01-28 11:01:00,41.2,40.7,29.84,SW,224,4.3,6.9,98,0.11,RA,,0.28,74.0,WeatherDisplay:10.37,2013-01-28 16:01:00,
2013-01-28 11:06:00,41.4,40.6,29.84,South,185,4.2,8.1,97,0.11,RA,,0.29,88.0,WeatherDisplay:10.37,2013-01-28 16:06:00,
2013-01-28 11:11:00,41.5,41.0,29.85,SW,220,2.9,4.6,98,0.11,RA,,0.30,69.0,WeatherDisplay:10.37,2013-01-28 16:11:00,
2013-01-28 11:16:00,41.6,41.1,29.85,South,180,5.6,5.6,98,0.10,RA,,0.30,72.0,WeatherDisplay:10.37,2013-01-28 16:16:00,
2013-01-28 11:21:00,41.7,40.9,29.85,WSW,249,1.8,3.5,97,0.10,RA,,0.31,77.0,WeatherDisplay:10.37,2013-01-28 16:21:00,
2013-01-28 11:26:00,41.7,40.9,29.85,WSW,239,2.7,3.5,97,0.10,RA,,0.32,79.0,WeatherDisplay:10.37,2013-01-28 16:26:00,
2013-01-28 11:31:00,41.8,41.0,29.85,WSW,256,1.5,3.5,97,0.09,RA,,0.32,86.0,WeatherDisplay:10.37,2013-01-28 16:31:00,
2013-01-28 11:36:00,41.9,41.1,29.85,SSW,192,3.4,6.9,97,0.08,OVC,,0.32,116.0,WeatherDisplay:10.37,2013-01-28 16:36:00,
2013-01-28 11:41:00,41.9,41.1,29.84,SSW,192,3.5,5.8,97,0.08,RA,,0.33,95.0,WeatherDisplay:10.37,2013-01-28 16:41:00,
2013-01-28 11:46:00,42.0,41.2,29.84,East,95,1.9,9.2,97,0.08,RA,,0.34,121.0,WeatherDisplay:10.37,2013-01-28 16:46:00,
2013-01-28 11:51:00,42.2,41.4,29.84,SW,217,3.3,4.6,97,0.09,RA,,0.35,116.0,WeatherDisplay:10.37,2013-01-28 16:51:00,
2013-01-28 11:56:00,42.2,41.4,29.84,South,180,2.9,4.6,97,0.09,RA,,0.36,98.0,WeatherDisplay:10.37,2013-01-28 16:56:00,
2013-01-28 12:01:00,42.3,41.5,29.84,SSW,210,5.7,10.4,97,0.09,RA,,0.37,95.0,WeatherDisplay:10.37,2013-01-28 17:01:00,
2013-01-28 12:06:00,42.3,41.5,29.83,SSE,161,2.5,8.1,97,0.09,RA,,0.38,86.0,WeatherDisplay:10.37,2013-01-28 17:06:00,
2013-01-28 12:11:00,42.4,41.6,29.83,WSW,252,3.1,6.9,97,0.09,RA,,0.39,88.0,WeatherDisplay:10.37,2013-01-28 17:11:00,
2013-01-28 12:16:00,42.5,41.7,29.83,South,181,4.0,6.9,97,0.10,RA,,0.40,111.0,WeatherDisplay:10.37,2013-01-28 17:16:00,
2013-01-28 12:21:00,42.6,41.8,29.83,South,181,2.3,4.6,97,0.10,RA,,0.41,98.0,WeatherDisplay:10.37,2013-01-28 17:21:00,
2013-01-28 12:26:00,42.7,41.9,29.83,SW,218,2.6,6.9,97,0.10,RA,,0.42,102.0,WeatherDisplay:10.37,2013-01-28 17:26:00,
2013-01-28 12:31:00,42.8,42.0,29.82,SSW,192,1.9,6.9,97,0.11,RA,,0.43,120.0,WeatherDisplay:10.37,2013-01-28 17:31:00,
2013-01-28 12:36:00,43.0,42.2,29.82,SW,219,4.5,6.9,97,0.12,RA,,0.44,123.0,WeatherDisplay:10.37,2013-01-28 17:36:00,
2013-01-28 12:41:00,43.2,42.4,29.82,SW,221,1.1,2.3,97,0.12,RA,,0.45,114.0,WeatherDisplay:10.37,2013-01-28 17:41:00,
2013-01-28 12:46:00,43.2,42.4,29.82,WSW,244,2.2,3.5,97,0.11,RA,,0.45,102.0,WeatherDisplay:10.37,2013-01-28 17:46:00,
2013-01-28 12:51:00,43.4,42.6,29.82,SSW,194,3.0,6.9,97,0.11,RA,,0.46,116.0,WeatherDisplay:10.37,2013-01-28 17:51:00,
2013-01-28 12:56:00,43.5,42.7,29.82,SW,235,2.8,10.4,97,0.11,RA,,0.47,93.0,WeatherDisplay:10.37,2013-01-28 17:56:00,
2013-01-28 13:01:00,43.5,42.7,29.82,WSW,244,1.7,3.5,97,0.11,RA,,0.48,84.0,WeatherDisplay:10.37,2013-01-28 18:01:00,
2013-01-28 13:06:00,43.6,42.8,29.81,SSW,203,4.5,10.4,97,0.10,RA,,0.48,105.0,WeatherDisplay:10.37,2013-01-28 18:06:00,
2013-01-28 13:11:00,43.7,42.9,29.81,WSW,252,5.8,10.4,97,0.10,RA,,0.49,109.0,WeatherDisplay:10.37,2013-01-28 18:11:00,
2013-01-28 13:16:00,43.8,43.0,29.81,SSW,201,3.0,8.1,97,0.10,RA,,0.50,121.0,WeatherDisplay:10.37,2013-01-28 18:16:00,
2013-01-28 13:21:00,43.9,43.1,29.81,South,190,3.1,5.0,97,0.10,RA,,0.51,91.0,WeatherDisplay:10.37,2013-01-28 18:21:00,
2013-01-28 13:26:00,44.1,43.3,29.81,South,186,3.3,7.0,97,0.09,RA,,0.51,102.0,WeatherDisplay:10.37,2013-01-28 18:26:00,
2013-01-28 13:31:00,44.2,43.4,29.81,South,190,3.7,5.8,97,0.09,RA,,0.52,93.0,WeatherDisplay:10.37,2013-01-28 18:31:00,
2013-01-28 13:36:00,44.3,43.5,29.81,South,187,5.6,9.2,97,0.09,RA,,0.53,95.0,WeatherDisplay:10.37,2013-01-28 18:36:00,
2013-01-28 13:41:00,44.3,43.5,29.81,West,260,4.2,8.0,97,0.08,RA,,0.53,113.0,WeatherDisplay:10.37,2013-01-28 18:41:00,
2013-01-28 13:46:00,44.4,43.6,29.81,SW,225,4.0,6.9,97,0.09,RA,,0.54,113.0,WeatherDisplay:10.37,2013-01-28 18:46:00,
2013-01-28 13:51:00,44.3,43.2,29.81,SW,223,2.5,5.8,96,0.08,RA,,0.54,100.0,WeatherDisplay:10.37,2013-01-28 18:51:00,
2013-01-28 13:56:00,44.3,43.2,29.81,WSW,257,3.6,5.0,96,0.07,OVC,,0.54,113.0,WeatherDisplay:10.37,2013-01-28 18:56:00,
2013-01-28 14:01:00,44.4,43.3,29.81,WSW,251,4.1,6.9,96,0.07,RA,,0.55,102.0,WeatherDisplay:10.37,2013-01-28 19:01:00,
2013-01-28 14:06:00,44.4,43.3,29.80,SW,236,2.7,4.6,96,0.07,RA,,0.55,95.0,WeatherDisplay:10.37,2013-01-28 19:06:00,
2013-01-28 14:11:00,44.4,43.6,29.81,WSW,246,2.8,9.2,97,0.07,RA,,0.56,98.0,WeatherDisplay:10.37,2013-01-28 19:11:00,
2013-01-28 14:16:00,44.4,43.3,29.81,West,270,3.2,12.0,96,0.06,RA,,0.56,95.0,WeatherDisplay:10.37,2013-01-28 19:16:00,
2013-01-28 14:21:00,44.4,43.3,29.81,SW,223,4.4,8.1,96,0.05,BKN,,0.56,95.0,WeatherDisplay:10.37,2013-01-28 19:21:00,
2013-01-28 14:26:00,44.3,43.5,29.81,SW,215,3.4,6.9,97,0.05,BKN,,0.56,72.0,WeatherDisplay:10.37,2013-01-28 19:26:00,
2013-01-28 14:31:00,44.2,43.1,29.81,West,265,1.8,4.6,96,0.04,BKN,,0.56,69.0,WeatherDisplay:10.37,2013-01-28 19:31:00,
2013-01-28 14:36:00,44.2,43.4,29.81,WNW,285,3.1,4.6,97,0.04,RA,,0.57,62.0,WeatherDisplay:10.37,2013-01-28 19:36:00,
2013-01-28 14:41:00,44.3,43.5,29.81,West,261,4.1,8.1,97,0.04,RA,,0.57,54.0,WeatherDisplay:10.37,2013-01-28 19:41:00,
2013-01-28 14:46:00,44.2,43.4,29.81,SW,232,2.9,5.8,97,0.03,BKN,,0.57,62.0,WeatherDisplay:10.37,2013-01-28 19:46:00,
2013-01-28 14:51:00,44.1,43.3,29.81,West,267,2.6,4.6,97,0.03,BKN,,0.57,51.0,WeatherDisplay:10.37,2013-01-28 19:51:00,
2013-01-28 14:56:00,44.1,43.3,29.81,West,268,2.7,4.0,97,0.03,BKN,,0.57,46.0,WeatherDisplay:10.37,2013-01-28 19:56:00,
2013-01-28 15:01:00,44.0,43.2,29.82,SW,227,2.2,4.6,97,0.03,RA,,0.58,44.0,WeatherDisplay:10.37,2013-01-28 20:01:00,
2013-01-28 15:06:00,43.8,43.0,29.82,West,259,4.8,6.9,97,0.03,RA,,0.58,40.0,WeatherDisplay:10.37,2013-01-28 20:06:00,
2013-01-28 15:11:00,43.6,42.8,29.82,West,262,2.6,7.0,97,0.02,OVC,,0.58,42.0,WeatherDisplay:10.37,2013-01-28 20:11:00,
2013-01-28 15:16:00,43.7,42.9,29.82,West,268,2.7,4.6,97,0.02,OVC,,0.58,39.0,WeatherDisplay:10.37,2013-01-28 20:16:00,
2013-01-28 15:21:00,43.6,42.8,29.82,SW,235,1.4,3.5,97,0.02,OVC,,0.58,49.0,WeatherDisplay:10.37,2013-01-28 20:21:00,
2013-01-28 15:26:00,43.5,42.7,29.82,West,264,2.0,3.5,97,0.02,OVC,,0.58,56.0,WeatherDisplay:10.37,2013-01-28 20:26:00,
2013-01-28 15:31:00,43.6,42.8,29.82,SSW,198,2.7,5.0,97,0.02,OVC,,0.58,76.0,WeatherDisplay:10.37,2013-01-28 20:31:00,
2013-01-28 15:36:00,43.8,43.0,29.83,SSE,167,2.4,3.5,97,0.01,OVC,,0.58,70.0,WeatherDisplay:10.37,2013-01-28 20:36:00,
2013-01-28 15:41:00,43.8,43.0,29.82,South,182,3.2,6.9,97,0.01,OVC,,0.58,56.0,WeatherDisplay:10.37,2013-01-28 20:41:00,
2013-01-28 15:46:00,44.0,43.2,29.83,WNW,286,2.2,4.0,97,0.01,OVC,,0.58,63.0,WeatherDisplay:10.37,2013-01-28 20:46:00,
2013-01-28 15:51:00,44.1,43.3,29.83,SW,217,2.2,4.0,97,0.01,OVC,,0.58,81.0,WeatherDisplay:10.37,2013-01-28 20:51:00,
2013-01-28 15:56:00,44.1,43.3,29.83,West,267,1.1,4.0,97,0.01,OVC,,0.58,58.0,WeatherDisplay:10.37,2013-01-28 20:56:00,
2013-01-28 16:01:00,44.1,43.3,29.82,South,188,1.2,3.5,97,0.00,BKN,,0.58,49.0,WeatherDisplay:10.37,2013-01-28 21:01:00,
2013-01-28 16:06:00,44.0,43.2,29.83,West,271,2.9,6.0,97,0.01,RA,,0.59,51.0,WeatherDisplay:10.37,2013-01-28 21:06:00,
2013-01-28 16:11:00,44.0,43.2,29.83,WNW,287,2.7,4.0,97,0.01,RA,,0.59,42.0,WeatherDisplay:10.37,2013-01-28 21:11:00,
2013-01-28 16:16:00,43.8,43.0,29.83,WSW,254,3.2,4.6,97,0.01,BKN,,0.59,40.0,WeatherDisplay:10.37,2013-01-28 21:16:00,
2013-01-28 16:21:00,43.8,43.0,29.83,WNW,286,4.0,7.0,97,0.01,BKN,,0.59,30.0,WeatherDisplay:10.37,2013-01-28 21:21:00,
2013-01-28 16:26:00,43.7,42.9,29.83,West,263,1.9,4.0,97,0.01,BKN,,0.59,32.0,WeatherDisplay:10.37,2013-01-28 21:26:00,
2013-01-28 16:31:00,43.6,42.8,29.83,West,262,1.7,3.5,97,0.01,BKN,,0.59,26.0,WeatherDisplay:10.37,2013-01-28 21:31:00,
2013-01-28 16:36:00,43.4,42.6,29.84,WSW,249,1.0,2.3,97,0.01,BKN,,0.59,19.0,WeatherDisplay:10.37,2013-01-28 21:36:00,
2013-01-28 16:41:00,43.3,42.5,29.84,SW,232,1.9,3.5,97,0.01,BKN,,0.59,26.0,WeatherDisplay:10.37,2013-01-28 21:41:00,
2013-01-28 16:46:00,43.3,42.5,29.84,WSW,256,1.9,3.5,97,0.01,BKN,,0.59,23.0,WeatherDisplay:10.37,2013-01-28 21:46:00,
2013-01-28 16:51:00,43.2,42.4,29.84,WSW,242,3.1,6.0,97,0.01,BKN,,0.59,25.0,WeatherDisplay:10.37,2013-01-28 21:51:00,
2013-01-28 16:56:00,43.2,42.4,29.84,WSW,253,3.3,4.6,97,0.01,BKN,,0.59,23.0,WeatherDisplay:10.37,2013-01-28 21:56:00,
2013-01-28 17:01:00,43.1,42.3,29.85,WSW,257,2.5,3.5,97,0.01,BKN,,0.59,19.0,WeatherDisplay:10.37,2013-01-28 22:01:00,
2013-01-28 17:06:00,42.8,42.0,29.85,West,275,1.7,3.5,97,0.00,BKN,,0.59,14.0,WeatherDisplay:10.37,2013-01-28 22:06:00,
2013-01-28 17:11:00,42.6,41.8,29.86,West,267,0.4,2.3,97,0.00,OVC,,0.59,9.0,WeatherDisplay:10.37,2013-01-28 22:11:00,
2013-01-28 17:16:00,42.3,41.5,29.86,West,266,1.6,3.0,97,0.00,OVC,,0.59,7.0,WeatherDisplay:10.37,2013-01-28 22:16:00,
2013-01-28 17:21:00,42.2,41.4,29.86,WSW,252,1.5,3.5,97,0.00,OVC,,0.59,5.0,WeatherDisplay:10.37,2013-01-28 22:21:00,
2013-01-28 17:26:00,41.9,41.1,29.86,West,261,1.4,3.5,97,0.00,OVC,,0.59,5.0,WeatherDisplay:10.37,2013-01-28 22:26:00,
2013-01-28 17:31:00,41.7,40.9,29.86,West,275,1.1,3.5,97,0.01,RA,,0.60,5.0,WeatherDisplay:10.37,2013-01-28 22:31:00,
2013-01-28 17:37:00,41.9,41.1,29.86,West,273,1.4,2.3,97,0.01,RA,,0.60,0.0,WeatherDisplay:10.37,2013-01-28 22:37:00,
2013-01-28 17:42:00,42.1,41.3,29.87,West,261,2.9,3.5,97,0.01,OVC,,0.60,0.0,WeatherDisplay:10.37,2013-01-28 22:42:00,
2013-01-28 17:47:00,42.2,41.7,29.87,WSW,250,3.8,4.6,98,0.01,OVC,,0.60,0.0,WeatherDisplay:10.37,2013-01-28 22:47:00,
2013-01-28 17:52:00,42.2,41.7,29.87,WSW,253,0.2,1.1,98,0.01,OVC,,0.60,0.0,WeatherDisplay:10.37,2013-01-28 22:52:00,
2013-01-28 17:57:00,42.2,41.7,29.87,WSW,251,1.3,3.5,98,0.01,OVC,,0.60,0.0,WeatherDisplay:10.37,2013-01-28 22:57:00,
2013-01-28 18:02:00,42.2,41.7,29.87,West,275,2.6,3.5,98,0.01,OVC,,0.60,0.0,WeatherDisplay:10.37,2013-01-28 23:02:00,
2013-01-28 18:07:00,42.4,41.9,29.88,West,259,1.1,3.5,98,0.01,OVC,,0.60,0.0,WeatherDisplay:10.37,2013-01-28 23:07:00,
2013-01-28 18:12:00,42.4,41.9,29.88,West,259,0.3,1.1,98,0.01,OVC,,0.60,0.0,WeatherDisplay:10.37,2013-01-28 23:12:00,
2013-01-28 18:17:00,42.4,41.9,29.89,WSW,254,1.3,2.3,98,0.01,OVC,,0.60,0.0,WeatherDisplay:10.37,2013-01-28 23:17:00,
2013-01-28 18:22:00,42.5,42.0,29.89,WSW,252,1.9,3.5,98,0.01,OVC,,0.60,0.0,WeatherDisplay:10.37,2013-01-28 23:22:00,
2013-01-28 18:27:00,42.7,42.2,29.89,West,266,3.1,6.9,98,0.01,OVC,,0.60,0.0,WeatherDisplay:10.37,2013-01-28 23:27:00,
2013-01-28 18:32:00,42.9,42.4,29.89,WSW,250,2.0,3.5,98,0.00,OVC,,0.60,0.0,WeatherDisplay:10.37,2013-01-28 23:32:00,
2013-01-28 18:37:00,42.9,42.4,29.89,WNW,287,1.4,3.5,98,0.00,OVC,,0.60,0.0,WeatherDisplay:10.37,2013-01-28 23:37:00,
2013-01-28 18:42:00,42.9,42.4,29.90,West,274,1.5,3.5,98,0.00,OVC,,0.60,0.0,WeatherDisplay:10.37,2013-01-28 23:42:00,
2013-01-28 18:47:00,42.7,42.2,29.90,WNW,282,1.8,3.5,98,0.00,OVC,,0.60,0.0,WeatherDisplay:10.37,2013-01-28 23:47:00,
2013-01-28 18:52:00,42.6,42.1,29.90,WNW,294,0.7,3.5,98,0.00,OVC,,0.60,0.0,WeatherDisplay:10.37,2013-01-28 23:52:00,
2013-01-28 18:57:00,42.5,41.7,29.90,West,277,0.7,1.1,97,0.00,OVC,,0.60,0.0,WeatherDisplay:10.37,2013-01-28 23:57:00,
2013-01-28 19:02:00,42.3,41.5,29.90,NW,309,0.3,1.1,97,0.00,CLR,,0.60,0.0,WeatherDisplay:10.37,2013-01-29 00:02:00,
2013-01-28 19:07:00,42.3,41.5,29.90,West,275,0.8,2.3,97,0.00,CLR,,0.60,0.0,WeatherDisplay:10.37,2013-01-29 00:07:00,
2013-01-28 19:12:00,42.3,41.5,29.90,West,273,1.7,3.5,97,0.00,OVC,,0.60,0.0,WeatherDisplay:10.37,2013-01-29 00:12:00,
2013-01-28 19:17:00,42.1,41.3,29.91,NW,310,1.1,2.3,97,0.00,OVC,,0.60,0.0,WeatherDisplay:10.37,2013-01-29 00:17:00,
2013-01-28 19:22:00,42.0,41.2,29.91,WNW,297,2.6,5.0,97,0.00,OVC,,0.60,0.0,WeatherDisplay:10.37,2013-01-29 00:22:00,
2013-01-28 19:27:00,42.0,41.2,29.91,West,279,1.8,3.5,97,0.00,OVC,,0.60,0.0,WeatherDisplay:10.37,2013-01-29 00:27:00,
2013-01-28 19:32:00,41.9,41.1,29.92,WNW,289,2.0,3.5,97,0.00,OVC,,0.60,0.0,WeatherDisplay:10.37,2013-01-29 00:32:00,
2013-01-28 19:37:00,41.8,41.0,29.92,WNW,297,0.6,3.5,97,0.00,OVC,,0.60,0.0,WeatherDisplay:10.37,2013-01-29 00:37:00,
2013-01-28 19:42:00,41.6,40.5,29.92,NW,313,1.1,1.1,96,0.00,OVC,,0.60,0.0,WeatherDisplay:10.37,2013-01-29 00:42:00,
2013-01-28 19:47:00,41.5,40.4,29.92,WNW,294,1.2,3.5,96,0.00,OVC,,0.60,0.0,WeatherDisplay:10.37,2013-01-29 00:47:00,
2013-01-28 19:52:00,41.3,40.2,29.92,NW,314,0.9,2.3,96,0.00,OVC,,0.60,0.0,WeatherDisplay:10.37,2013-01-29 00:52:00,
2013-01-28 19:57:00,41.1,40.0,29.93,NW,307,1.2,2.3,96,0.00,OVC,,0.60,0.0,WeatherDisplay:10.37,2013-01-29 00:57:00,
2013-01-28 20:02:00,40.9,39.8,29.93,WNW,293,1.6,6.9,96,0.00,OVC,,0.60,0.0,WeatherDisplay:10.37,2013-01-29 01:02:00,
2013-01-28 20:07:00,40.7,39.6,29.93,West,274,1.3,2.3,96,0.00,OVC,,0.60,0.0,WeatherDisplay:10.37,2013-01-29 01:07:00,
2013-01-28 20:12:00,40.5,39.4,29.94,WNW,292,1.8,3.5,96,0.00,OVC,,0.60,0.0,WeatherDisplay:10.37,2013-01-29 01:12:00,
2013-01-28 20:17:00,40.4,39.4,29.94,WNW,300,1.5,2.3,96,0.00,OVC,,0.60,0.0,WeatherDisplay:10.37,2013-01-29 01:17:00,
2013-01-28 20:22:00,40.2,39.2,29.94,NW,306,1.5,2.3,96,0.00,OVC,,0.60,0.0,WeatherDisplay:10.37,2013-01-29 01:22:00,
2013-01-28 20:27:00,40.1,39.1,29.94,NNW,330,0.8,1.1,96,0.00,OVC,,0.60,0.0,WeatherDisplay:10.37,2013-01-29 01:27:00,
2013-01-28 20:32:00,39.8,38.8,29.94,NNW,328,1.0,3.5,96,0.00,OVC,,0.60,0.0,WeatherDisplay:10.37,2013-01-29 01:32:00,
2013-01-28 20:37:00,39.6,38.6,29.94,West,277,0.8,2.3,96,0.00,OVC,,0.60,0.0,WeatherDisplay:10.37,2013-01-29 01:37:00,
2013-01-28 20:42:00,39.4,38.4,29.94,WNW,297,1.3,3.5,96,0.00,OVC,,0.60,0.0,WeatherDisplay:10.37,2013-01-29 01:42:00,
2013-01-28 20:47:00,39.2,38.2,29.94,NW,313,0.3,1.1,96,0.00,OVC,,0.60,0.0,WeatherDisplay:10.37,2013-01-29 01:47:00,
2013-01-28 20:52:00,39.1,38.1,29.94,North,355,1.1,3.0,96,0.00,OVC,,0.60,0.0,WeatherDisplay:10.37,2013-01-29 01:52:00,
2013-01-28 20:57:00,38.8,37.8,29.94,NNW,329,1.3,2.3,96,0.00,OVC,,0.60,0.0,WeatherDisplay:10.37,2013-01-29 01:57:00,
2013-01-28 21:02:00,38.6,37.6,29.95,WNW,284,1.1,2.3,96,0.00,OVC,,0.60,0.0,WeatherDisplay:10.37,2013-01-29 02:02:00,
2013-01-28 21:07:00,38.4,37.4,29.95,WNW,286,1.3,2.3,96,0.00,OVC,,0.60,0.0,WeatherDisplay:10.37,2013-01-29 02:07:00,
2013-01-28 21:12:00,38.3,37.3,29.95,WNW,284,0.8,3.5,96,0.00,OVC,,0.60,0.0,WeatherDisplay:10.37,2013-01-29 02:12:00,
2013-01-28 21:17:00,38.2,37.2,29.95,WNW,289,1.5,2.3,96,0.00,OVC,,0.60,0.0,WeatherDisplay:10.37,2013-01-29 02:17:00,
2013-01-28 21:22:00,38.1,37.1,29.95,NW,324,1.2,3.5,96,0.00,OVC,,0.60,0.0,WeatherDisplay:10.37,2013-01-29 02:22:00,
2013-01-28 21:27:00,38.0,37.0,29.95,NW,324,1.2,2.3,96,0.00,OVC,,0.60,0.0,WeatherDisplay:10.37,2013-01-29 02:27:00,
2013-01-28 21:32:00,37.9,36.9,29.95,NW,324,0.6,1.1,96,0.00,OVC,,0.60,0.0,WeatherDisplay:10.37,2013-01-29 02:32:00,
2013-01-28 21:37:00,37.9,37.1,29.95,NW,321,0.5,2.3,97,0.00,OVC,,0.60,0.0,WeatherDisplay:10.37,2013-01-29 02:37:00,
2013-01-28 21:42:00,37.8,37.0,29.95,NNW,333,1.1,2.3,97,0.00,OVC,,0.60,0.0,WeatherDisplay:10.37,2013-01-29 02:42:00,
2013-01-28 21:47:00,37.7,36.9,29.95,NW,308,0.5,2.3,97,0.00,OVC,,0.60,0.0,WeatherDisplay:10.37,2013-01-29 02:47:00,
2013-01-28 21:52:00,37.5,36.7,29.95,NW,321,0.6,2.3,97,0.00,OVC,,0.60,0.0,WeatherDisplay:10.37,2013-01-29 02:52:00,
2013-01-28 21:57:00,37.4,36.4,29.95,North,355,1.2,3.5,96,0.00,OVC,,0.60,0.0,WeatherDisplay:10.37,2013-01-29 02:57:00,
2013-01-28 22:02:00,37.3,36.3,29.95,NW,311,1.5,2.3,96,0.00,OVC,,0.60,0.0,WeatherDisplay:10.37,2013-01-29 03:02:00,
2013-01-28 22:07:00,37.2,36.4,29.95,NNE,13,1.4,2.3,97,0.00,OVC,,0.60,0.0,WeatherDisplay:10.37,2013-01-29 03:07:00,
2013-01-28 22:12:00,37.1,36.3,29.95,North,5,1.0,2.3,97,0.00,OVC,,0.60,0.0,WeatherDisplay:10.37,2013-01-29 03:12:00,
2013-01-28 22:17:00,37.0,36.2,29.95,North,5,1.0,3.5,97,0.00,OVC,,0.60,0.0,WeatherDisplay:10.37,2013-01-29 03:17:00,
2013-01-28 22:22:00,37.0,36.2,29.95,North,5,0.7,1.1,97,0.00,OVC,,0.60,0.0,WeatherDisplay:10.37,2013-01-29 03:22:00,
2013-01-28 22:27:00,36.9,36.1,29.95,North,5,1.0,2.0,97,0.00,OVC,,0.60,0.0,WeatherDisplay:10.37,2013-01-29 03:27:00,
2013-01-28 22:32:00,36.8,36.0,29.95,NNW,346,1.2,2.3,97,0.00,OVC,,0.60,0.0,WeatherDisplay:10.37,2013-01-29 03:32:00,
2013-01-28 22:37:00,36.7,35.9,29.95,NNE,22,1.4,3.5,97,0.00,OVC,,0.60,0.0,WeatherDisplay:10.37,2013-01-29 03:37:00,
2013-01-28 22:42:00,36.6,35.8,29.95,NW,308,0.6,1.1,97,0.00,OVC,,0.60,0.0,WeatherDisplay:10.37,2013-01-29 03:42:00,
2013-01-28 22:47:00,36.6,35.8,29.95,NW,308,0.3,1.1,97,0.00,OVC,,0.60,0.0,WeatherDisplay:10.37,2013-01-29 03:47:00,
2013-01-28 22:52:00,36.5,35.7,29.96,NW,308,0.1,1.1,97,0.00,OVC,,0.60,0.0,WeatherDisplay:10.37,2013-01-29 03:52:00,
2013-01-28 22:57:00,36.4,35.4,29.96,NW,308,0.1,1.1,96,0.00,OVC,,0.60,0.0,WeatherDisplay:10.37,2013-01-29 03:57:00,
2013-01-28 23:02:00,36.3,35.3,29.96,NW,308,0.0,1.1,96,0.00,OVC,,0.60,0.0,WeatherDisplay:10.37,2013-01-29 04:02:00,
2013-01-28 23:07:00,36.2,35.2,29.96,NW,307,0.0,0.0,96,0.00,OVC,,0.60,0.0,WeatherDisplay:10.37,2013-01-29 04:07:00,
2013-01-28 23:12:00,36.2,35.4,29.96,NW,307,0.0,0.0,97,0.00,OVC,,0.60,0.0,WeatherDisplay:10.37,2013-01-29 04:12:00,
2013-01-28 23:17:00,36.1,35.3,29.96,NW,307,0.0,0.0,97,0.00,OVC,,0.60,0.0,WeatherDisplay:10.37,2013-01-29 04:17:00,
2013-01-28 23:22:00,36.0,35.0,29.96,NW,307,0.0,0.0,96,0.00,OVC,,0.60,0.0,WeatherDisplay:10.37,2013-01-29 04:22:00,
2013-01-28 23:27:00,35.9,34.9,29.96,NW,307,0.0,0.0,96,0.00,OVC,,0.60,0.0,WeatherDisplay:10.37,2013-01-29 04:27:00,
2013-01-28 23:32:00,35.8,34.8,29.96,NW,307,0.0,0.0,96,0.00,OVC,,0.60,0.0,WeatherDisplay:10.37,2013-01-29 04:32:00,
2013-01-28 23:37:00,35.7,34.7,29.96,NW,307,0.0,0.0,96,0.00,OVC,,0.60,0.0,WeatherDisplay:10.37,2013-01-29 04:37:00,
2013-01-28 23:42:00,35.6,34.6,29.96,NW,307,0.0,0.0,96,0.00,OVC,,0.60,0.0,WeatherDisplay:10.37,2013-01-29 04:42:00,
2013-01-28 23:47:00,35.5,34.5,29.96,NW,307,0.0,0.0,96,0.00,OVC,,0.60,0.0,WeatherDisplay:10.37,2013-01-29 04:47:00,
2013-01-28 23:52:00,35.5,34.7,29.96,NW,307,0.0,0.0,97,0.00,OVC,,0.60,0.0,WeatherDisplay:10.37,2013-01-29 04:52:00,
2013-01-28 23:57:00,35.5,34.7,29.96,NW,307,0.0,0.0,97,0.00,OVC,,0.60,0.0,WeatherDisplay:10.37,2013-01-29 04:57:00,